| time (UTC) | temp C | wind direction | speed KPH | gust KPH | rain 1hr cm | rain 24hr cm | rain mn cm | humidity % | barometer mb |
| 20260504194520 | 17 | 242 | 14.5 | 27.4 | 0.00 | 0.00 | 0.00 | 61 | 1011.0 |
| 20260504193015 | 17 | 209 | 6.4 | 22.5 | 0.00 | 0.00 | 0.00 | 62 | 1011.1 |
| 20260504191507 | 17 | 259 | 8.0 | 22.5 | 0.00 | 0.00 | 0.00 | 62 | 1011.2 |
| 20260504190005 | 17 | 258 | 12.9 | 24.1 | 0.00 | 0.00 | 0.00 | 59 | 1011.3 |
| 20260504184509 | 18 | 240 | 12.9 | 25.7 | 0.00 | 0.00 | 0.00 | 59 | 1011.3 |
| 20260504183002 | 18 | 276 | 9.7 | 20.9 | 0.00 | 0.00 | 0.00 | 59 | 1011.5 |
| 20260504181605 | 18 | 150 | 4.8 | 22.5 | 0.00 | 0.00 | 0.00 | 59 | 1011.5 |
| 20260504180157 | 18 | 212 | 3.2 | 22.5 | 0.00 | 0.00 | 0.00 | 60 | 1011.7 |
| 20260504174557 | 18 | 205 | 9.7 | 24.1 | 0.00 | 0.00 | 0.00 | 58 | 1011.8 |
| 20260504173111 | 18 | 166 | 4.8 | 19.3 | 0.00 | 0.00 | 0.00 | 62 | 1011.9 |
| 20260504171553 | 18 | 260 | 11.3 | 24.1 | 0.00 | 0.00 | 0.00 | 58 | 1012.2 |
| 20260504081537 | 8 | 250 | 0.0 | 3.2 | 0.00 | 0.00 | 0.00 | 68 | 1013.7 |
| 20260504050016 | 8 | 247 | 1.6 | 4.8 | 0.00 | 0.00 | 0.00 | 65 | 1012.9 |
| 20260504044511 | 8 | 250 | 0.0 | 3.2 | 0.00 | 0.00 | 0.00 | 68 | 1012.7 |
| 20260504043008 | 7 | 250 | 0.0 | 1.6 | 0.00 | 0.00 | 0.00 | 72 | 1012.7 |
| 20260504041505 | 6 | 250 | 0.0 | 1.6 | 0.00 | 0.00 | 0.00 | 74 | 1012.6 |
| 20260504040005 | 6 | 250 | 0.0 | 0.0 | 0.00 | 0.00 | 0.00 | 73 | 1012.6 |
| 20260504034600 | 6 | 250 | 0.0 | 0.0 | 0.00 | 0.00 | 0.00 | 72 | 1012.5 |
| 20260504033058 | 6 | 250 | 0.0 | 0.0 | 0.00 | 0.00 | 0.00 | 68 | 1012.5 |
| 20260504031624 | 6 | 250 | 0.0 | 0.0 | 0.00 | 0.00 | 0.00 | 68 | 1012.5 |
| 20260504030056 | 6 | 250 | 0.0 | 0.0 | 0.00 | 0.00 | 0.00 | 67 | 1012.5 |
| 20260504024554 | 7 | 250 | 0.0 | 0.0 | 0.00 | 0.00 | 0.00 | 64 | 1012.5 |
| 20260504023054 | 7 | 250 | 0.0 | 0.0 | 0.00 | 0.00 | 0.00 | 60 | 1012.5 |
| 20260504021607 | 8 | 250 | 0.0 | 0.0 | 0.00 | 0.00 | 0.00 | 58 | 1012.4 |
| 20260504020055 | 8 | 250 | 0.0 | 0.0 | 0.00 | 0.00 | 0.00 | 55 | 1012.5 |
| 20260504014551 | 8 | 250 | 0.0 | 1.6 | 0.00 | 0.00 | 0.00 | 55 | 1012.4 |
| 20260504013055 | 8 | 276 | 0.0 | 0.0 | 0.00 | 0.00 | 0.00 | 55 | 1012.2 |
| 20260504011553 | 8 | 276 | 0.0 | 0.0 | 0.00 | 0.00 | 0.00 | 53 | 1012.0 |
| 20260504010047 | 9 | 276 | 0.0 | 0.0 | 0.00 | 0.00 | 0.00 | 49 | 1011.9 |
| 20260504004545 | 10 | 276 | 0.0 | 0.0 | 0.00 | 0.00 | 0.00 | 45 | 1011.7 |
| 20260504003047 | 11 | 276 | 0.0 | 1.6 | 0.00 | 0.00 | 0.00 | 39 | 1011.5 |
| 20260504001557 | 12 | 275 | 0.0 | 1.6 | 0.00 | 0.00 | 0.00 | 36 | 1011.2 |
| 20260504000044 | 13 | 290 | 1.6 | 8.0 | 0.00 | 0.00 | 0.00 | 34 | 1011.0 |
| 20260503234541 | 13 | 266 | 6.4 | 11.3 | 0.00 | 0.00 | 0.00 | 33 | 1010.9 |
| 20260503233040 | 14 | 278 | 3.2 | 12.9 | 0.00 | 0.00 | 0.00 | 32 | 1010.7 |
| 20260503231547 | 14 | 295 | 4.8 | 19.3 | 0.00 | 0.00 | 0.00 | 31 | 1010.5 |
| 20260503230039 | 15 | 238 | 8.0 | 16.1 | 0.00 | 0.00 | 0.00 | 30 | 1010.5 |
| 20260503224539 | 15 | 284 | 9.7 | 22.5 | 0.00 | 0.00 | 0.00 | 30 | 1010.5 |
| 20260503223042 | 15 | 286 | 8.0 | 24.1 | 0.00 | 0.00 | 0.00 | 30 | 1010.4 |
| 20260503221537 | 15 | 316 | 9.7 | 25.7 | 0.00 | 0.00 | 0.00 | 30 | 1010.3 |
| 20260503220038 | 15 | 263 | 6.4 | 16.1 | 0.00 | 0.00 | 0.00 | 32 | 1010.3 |
| 20260503214541 | 15 | 330 | 9.7 | 22.5 | 0.00 | 0.00 | 0.00 | 31 | 1010.2 |
| 20260503213050 | 15 | 296 | 4.8 | 24.1 | 0.00 | 0.00 | 0.00 | 33 | 1010.1 |
| 20260503211533 | 15 | 268 | 9.7 | 22.5 | 0.00 | 0.00 | 0.00 | 32 | 1010.0 |
| 20260503210028 | 15 | 292 | 12.9 | 25.7 | 0.00 | 0.00 | 0.00 | 33 | 1010.1 |
| 20260503204536 | 14 | 313 | 11.3 | 25.7 | 0.00 | 0.00 | 0.00 | 33 | 1010.0 |
| 20260503203025 | 15 | 307 | 11.3 | 27.4 | 0.00 | 0.00 | 0.00 | 34 | 1009.9 |
| 20260503201525 | 14 | 262 | 12.9 | 30.6 | 0.00 | 0.00 | 0.00 | 34 | 1010.1 |
| 20260503200021 | 14 | 252 | 9.7 | 29.0 | 0.00 | 0.00 | 0.00 | 36 | 1010.1 |